weather.gov     
National Weather Service

Terminal Aerodrome Forecast
NWS Homepage
This page is being discontinued on March 12, 2014.
The same data is available at this site. Please update your bookmarks.
Thank you, and we apologize for the inconvenience.
Please send an email to SR-SRH.Webmaster@noaa.gov with any concerns.


Current Version
Previous Version:    01  02  03  04  05  06  07  08  09  10  11  12  13  14  
[Printable]
570
FTUS41 KCAR 281100
TAFHUL
TAF
KHUL 281120Z 2812/2912 16005KT P6SM OVC004
     FM281400 15006KT P6SM OVC008
     FM281800 14009KT 6SM -SHRA OVC010
     FM290200 14011KT 3SM -SHRA BR OVC008
     FM290500 15011KT 3SM -SHRA BR BKN005=


U.S. Dept. of Commerce
NOAA National Weather Service
1325 East West Highway
Silver Spring, MD 20910
E-mail: w-nws.webmaster@noaa.gov
Page last modified: May 16, 2007
NATIONAL WEATHER SERVICE: for Safety, for Work, for Fun - FOR LIFE